GFSNIL_con_sbcape_000.txt.gz
CAPE
0 0 0 0 0 0 0 0 0 0 0 0 0 0 0 3 0 0 9 41 46 47
0 0 0 0 0 0 0 0 0 0 0 0 0 0 0 21 30 8 6 19 52 87
0 0 0 0 0 0 0 0 0 0 0 0 0 0 0 24 68 71 4 24 123 61
0 0 0 0 0 0 0 0 0 0 0 0 0 0 26 35 47 54 39 6 76 39
0 0 0 0 0 0 0 0 0 0 0 0 0 0 0 25 56 50 32 33 33 19
0 0 0 0 0 0 0 0 0 0 0 0 0 0 0 0 0 19 12 30 13 17
0 0 0 0 0 0 0 0 0 0 0 0 0 0 0 0 0 9 5 3 0 5
0 0 0 0 0 0 0 0 0 0 0 0 0 0 0 1 1 5 4 1 0 0
0 0 0 0 0 0 0 0 0 0 0 0 0 0 0 0 2 14 19 1 1 0
0 0 0 0 0 0 0 0 0 0 0 0 0 0 0 0 3 4 6 1 2 4
0 0 0 0 0 0 0 0 0 0 0 0 1 0 1 1 1 3 8 1 0 1
0 0 0 0 0 0 0 0 0 0 0 0 1 1 0 4 2 3 4 0 0 1
0 0 0 0 0 0 0 0 0 0 0 0 0 1 0 1 1 2 2 0 0 0
0 0 0 0 0 0 0 0 0 0 0 0 0 0 2 0 0 0 0 0 0 0

GFSNIL_con_sbcape_006.txt.gz
CAPE
709 309 155 304 202 235 442 133 385 457 475 502 473 544 729 792 717 674 796 740 828 780
673 299 309 349 302 286 195 167 254 292 332 354 295 395 655 685 796 674 584 744 995 1264
586 428 394 286 141 145 169 60 114 156 243 357 359 360 623 817 610 687 665 688 978 798
511 396 360 334 147 95 114 91 65 64 187 182 344 551 671 500 400 461 634 846 732 901
392 433 396 311 217 51 44 48 28 82 84 91 281 405 484 348 178 301 562 364 804 814
396 309 325 363 279 71 11 18 47 127 82 238 350 466 505 391 161 148 496 608 748 891
274 398 438 315 186 118 57 89 293 236 274 305 212 344 352 144 120 224 480 382 647 683
302 298 284 261 178 169 219 288 331 315 306 379 262 170 166 108 469 435 320 392 300 253
47 139 273 303 322 318 300 324 271 241 252 345 84 0 0 63 259 491 552 491 134 149
35 140 234 254 295 357 431 499 387 366 350 391 64 0 0 0 149 620 627 580 418 153
41 215 340 374 350 452 585 678 696 575 550 458 7 1 0 0 238 507 395 335 240 317
12 110 147 235 578 601 657 691 567 640 618 535 28 0 0 0 1 341 294 336 300 274
61 46 157 348 373 677 569 423 337 581 634 116 101 0 1 0 45 288 325 336 179 13
135 195 363 581 423 505 273 138 335 573 552 363 58 4 2 0 417 504 209 201 92 9

GFSNIL_con_sbcape_009.txt.gz
CAPE
771 516 347 431 246 544 436 545 328 386 531 681 665 663 761 1370 814 760 922 958 980 922
693 308 756 580 499 521 807 254 191 264 454 542 619 491 696 962 773 795 888 1043 1016 1103
484 484 564 474 318 161 204 48 82 147 309 334 346 373 677 994 958 937 820 899 952 1017
847 331 474 392 202 155 120 39 54 73 98 100 195 545 756 838 635 536 1007 1059 868 888
988 470 536 445 171 79 53 15 36 60 88 70 626 472 648 427 339 558 696 814 689 704
420 508 477 475 721 23 14 24 36 52 59 198 474 588 452 285 332 483 632 650 748 743
377 351 606 199 136 32 16 16 389 67 300 271 412 395 399 95 362 531 464 494 685 677
401 371 264 126 118 37 36 307 362 255 201 260 319 209 439 518 523 151 340 557 457 287
234 216 258 168 592 419 648 515 574 324 396 499 91 0 0 0 681 410 494 247 52 40
189 195 200 192 152 190 783 951 482 193 641 401 8 0 0 0 619 772 627 472 266 71
228 300 203 519 584 520 828 736 604 410 577 402 0 1 0 0 720 823 503 449 303 194
337 360 455 469 580 790 1081 1103 836 685 576 344 0 1 0 0 561 499 537 368 335 207
273 291 295 460 693 779 850 754 921 802 625 94 24 1 2 0 547 611 435 564 173 15
342 335 655 490 569 628 494 493 900 738 593 529 224 0 1 0 555 685 503 123 161 7

GFSNIL_con_sbcape_015.txt.gz
CAPE
186 149 105 95 61 50 0 0 0 0 0 93 226 285 238 113 107 144 81 100 48 78
344 282 139 16 0 0 0 0 0 0 0 55 130 140 75 31 54 125 107 153 159 90
268 168 78 8 7 0 0 4 0 0 7 21 87 82 42 8 134 191 177 282 289 183
262 146 16 5 0 0 0 0 0 0 24 20 39 33 50 50 157 143 240 209 155 216
79 90 7 0 5 0 0 0 0 4 22 141 175 11 5 64 55 177 120 121 223 182
149 137 52 1 9 0 0 0 8 29 169 187 68 39 25 89 112 111 35 108 112 133
243 142 33 4 12 0 0 0 29 32 223 117 153 115 47 207 51 58 53 62 84 124
260 226 56 55 17 11 0 14 34 45 92 0 0 2 49 32 28 9 13 4 1 45
126 411 84 58 31 31 26 34 19 44 0 0 0 1 0 42 50 28 17 28 1 0
250 5 7 41 31 24 29 61 57 21 0 0 0 2 0 0 71 15 9 0 11 2
150 50 41 25 12 40 70 27 28 9 0 0 0 2 0 0 88 66 24 3 0 1
76 62 181 140 20 38 37 62 12 0 0 0 0 1 0 111 41 22 15 7 5 2
116 150 97 15 19 50 34 39 43 7 0 0 0 1 2 0 5 0 0 0 0 0
91 133 187 124 167 119 108 89 58 0 0 0 0 0 2 0 0 0 0 0 0 0

GFSNIL_con_sbcape_021.txt.gz
CAPE
0 0 7 1 0 0 0 0 0 0 0 0 0 0 0 0 0 0 0 0 0 0
0 0 0 0 0 0 0 0 0 0 0 0 0 0 0 0 0 0 0 0 0 0
0 0 0 0 0 0 0 0 0 0 0 0 0 0 0 0 0 0 0 0 0 0
0 0 0 0 0 0 0 0 0 0 0 0 0 0 0 0 0 0 2 4 18 8
0 0 0 0 0 0 0 0 0 0 0 4 0 0 0 2 33 2 34 2 14 34
0 0 0 0 0 0 0 0 0 0 7 17 0 0 2 21 3 1 7 0 0 39
0 0 0 0 0 0 0 0 0 22 19 13 16 14 64 37 9 2 0 9 30 19
1 1 0 0 0 0 0 0 23 19 0 0 0 0 10 4 3 5 0 0 10 4
11 0 1 0 0 0 0 11 33 4 0 0 0 1 1 13 17 15 11 1 1 0
1 0 20 5 0 3 8 15 16 0 0 0 0 1 1 1 4 1 5 2 2 3
0 0 17 18 0 1 18 23 0 0 0 0 0 1 0 3 0 2 1 1 1 1
0 0 0 0 0 0 0 0 0 0 0 0 0 1 1 15 2 5 3 1 1 1
0 0 0 0 0 0 0 0 0 0 0 0 0 1 1 0 3 1 2 4 0 0
0 0 0 0 0 0 0 0 0 0 0 0 0 1 1 0 0 1 1 1 1 0

GFSNIL_con_sbcape_024.txt.gz
CAPE
0 3 0 1 0 0 0 0 0 0 0 0 0 0 0 0 0 0 0 0 0 0
0 0 0 0 0 0 0 0 0 0 0 0 0 0 0 0 0 0 0 0 0 0
0 0 0 0 0 0 0 0 0 0 0 0 0 0 0 0 0 0 0 0 0 0
0 0 0 0 0 0 0 0 0 0 0 0 0 0 0 0 0 0 0 0 0 11
0 0 0 0 0 0 0 0 0 0 0 0 0 0 0 0 15 0 0 7 9 66
0 0 0 0 0 0 0 0 0 0 0 2 0 0 1 7 29 0 0 3 22 60
0 0 0 0 0 0 0 0 0 3 2 0 0 18 63 56 19 3 0 5 23 33
0 0 0 0 0 0 0 0 16 13 0 0 0 0 1 3 6 3 1 26 4 6
0 0 0 0 0 0 0 2 24 7 0 0 0 1 1 0 28 5 6 4 1 2
0 0 1 0 0 0 0 27 10 0 0 0 0 1 1 1 2 9 11 3 3 2
0 0 17 4 0 0 16 24 4 0 0 0 0 1 1 0 9 3 2 1 1 1
0 0 6 0 0 0 11 7 0 0 0 0 1 1 1 0 1 3 3 2 2 2
0 0 0 0 0 0 0 0 0 0 0 0 0 1 1 3 4 2 1 1 0 0
0 0 0 0 0 0 0 0 0 0 0 0 1 0 1 0 2 2 2 2 1 0

GFSNIL_con_sbcape_030.txt.gz
CAPE
2253 2175 2230 2167 2114 2006 1965 1940 2041 2007 1877 1736 1671 1321 1011 684 548 665 769 826 826 566
2207 2286 2281 2339 2130 1853 1885 1883 1816 1794 1726 1332 916 765 823 402 671 740 1010 1042 918 1017
2325 2265 2142 1858 1583 1544 1597 1480 1539 1356 1017 684 526 572 768 587 824 942 1634 846 865 979
1840 1726 1621 1582 1554 1509 1439 1236 898 626 511 347 419 625 958 959 834 767 953 776 754 771
1469 1403 1417 1362 1289 1038 805 521 320 203 132 197 486 722 738 700 593 567 548 709 571 584
1377 1352 1250 1027 762 521 405 226 131 189 257 221 393 615 776 629 567 174 480 662 627 528
1083 1028 892 625 394 245 160 231 250 223 164 314 499 605 759 458 710 740 651 690 701 643
583 549 426 314 266 240 144 114 221 326 365 531 697 250 628 594 727 260 596 751 729 759
303 340 410 449 402 174 243 398 404 461 330 530 175 1 1 0 288 639 604 711 624 688
264 281 327 184 226 181 471 453 601 505 283 530 613 1 0 0 100 200 255 196 239 209
123 123 116 33 136 425 393 682 734 544 545 717 46 0 1 4 126 37 32 102 146 169
101 98 156 48 325 482 636 765 623 507 608 686 183 0 0 15 40 11 4 2 29 55
114 32 55 130 270 457 628 579 338 515 643 57 112 1 0 10 30 10 8 13 6 0
217 153 205 306 391 273 424 326 507 488 590 176 81 1 0 2 18 9 6 4 4 0

GFSNIL_con_sbcape_033.txt.gz
CAPE
2693 2466 2689 2032 1661 1837 1785 2170 2400 2372 2706 2117 1858 1525 1622 1417 1130 1162 695 811 1037 668
2412 3288 2341 3089 3190 2308 2946 2366 2150 2311 1970 1728 1442 1463 1517 892 734 1078 1210 921 984 1139
3110 3053 2644 3045 2256 2424 2817 2581 2106 1809 1661 1416 1253 1063 940 825 649 893 1419 1414 1098 1113
2302 2270 2324 2140 2186 1972 2125 1560 1318 1198 1110 955 720 615 825 862 706 720 1066 1056 837 815
2322 2200 2358 1684 1509 1329 1268 1116 906 710 531 329 308 621 760 758 661 729 809 877 900 550
1920 1793 2093 1378 1223 999 767 504 342 211 174 206 378 639 795 715 728 780 559 721 893 463
1775 1647 1203 979 792 526 324 210 216 238 202 164 252 497 716 710 523 697 330 1067 1009 441
1042 916 672 503 376 262 252 222 181 227 491 378 720 349 787 788 698 651 719 875 708 820
290 223 297 331 697 305 140 556 709 678 491 780 172 1 0 86 665 360 457 705 722 748
289 297 480 441 483 192 946 968 972 808 391 826 71 1 1 0 440 599 619 716 833 680
106 199 278 380 167 1077 1039 798 801 555 787 890 0 1 0 0 243 239 298 294 510 569
122 124 83 92 387 1055 677 757 771 696 759 814 23 1 0 35 44 9 10 81 131 191
137 146 178 292 772 858 525 596 502 695 746 142 45 1 0 19 7 6 4 2 0 0
136 147 554 955 1087 843 372 580 868 701 668 290 93 0 0 2 8 9 12 1 3 4

GFSNIL_con_sbcape_036.txt.gz
CAPE
2298 3369 3815 2619 1870 1566 1408 1453 1457 1703 1554 1755 1862 2095 1881 1617 1234 1232 1110 1174 855 868
3048 3561 2870 2442 1620 1592 1501 1495 1500 2064 1993 2181 1886 1542 1394 1291 1288 1295 1177 1106 1232 834
3163 3359 2623 2310 1943 2190 2309 2066 1972 2109 1945 1788 1503 1349 1501 1437 1145 1279 1247 1051 855 877
3044 2841 2923 2631 2373 2446 2307 2130 1908 1767 1581 1422 1418 1426 1322 1246 975 991 991 883 549 873
1846 1788 1961 1924 1777 1882 1965 1846 1612 1428 1112 988 954 1156 1175 955 788 764 927 805 630 732
1694 1386 1281 1277 1751 1751 1745 1599 962 877 768 537 647 744 1146 992 803 701 671 553 398 656
1396 1361 1333 1536 1517 1258 1029 872 732 679 434 601 635 831 834 605 620 692 337 525 381 472
1230 1176 1278 1147 1025 917 747 619 470 730 513 851 84 200 734 1054 933 580 271 471 516 296
1124 934 1007 880 386 883 872 807 356 541 620 636 0 1 0 200 797 482 471 246 423 37
528 496 321 372 368 897 1003 748 548 488 649 408 0 1 0 0 491 833 415 583 364 481
313 310 339 326 514 979 933 1060 997 895 677 80 0 1 0 57 388 650 543 575 405 497
273 251 219 404 673 983 793 728 842 863 884 80 0 1 0 32 30 94 91 2 2 172
147 179 397 404 826 886 816 931 810 673 586 0 1 2 0 0 0 0 0 3 0 2
133 178 340 580 821 723 913 751 719 748 469 112 7 0 0 0 13 8 6 0 0 0

GFSNIL_con_sbcape_042.txt.gz
CAPE
0 0 0 150 844 828 822 592 541 677 683 799 692 718 550 489 382 271 181 216 86 27
1 0 169 657 743 541 431 465 330 460 565 684 855 808 586 467 500 302 49 31 0 0
186 103 555 663 654 612 553 642 382 442 613 823 836 689 553 396 374 266 20 0 0 0
856 829 698 717 621 579 480 475 490 521 666 721 650 413 406 327 214 179 11 0 0 0
1332 876 687 601 632 568 451 473 677 774 798 754 545 278 249 151 95 55 14 0 0 0
1356 1165 895 1034 980 770 663 644 759 695 639 595 527 264 61 79 50 38 0 0 0 0
1419 1262 1105 1313 1139 879 771 723 522 494 444 376 243 62 26 0 0 0 0 0 15 19
1001 866 723 661 475 387 317 278 21 0 2 18 45 40 168 78 0 0 0 0 2 33
707 514 220 39 0 0 0 0 0 0 0 0 0 1 0 0 0 0 0 0 0 0
373 222 68 0 0 0 0 0 0 0 0 0 0 0 0 0 0 0 0 0 0 14
212 74 0 0 0 0 14 8 4 0 0 0 1 0 0 0 0 0 0 0 13 16
6 0 16 50 17 31 52 5 0 0 0 0 0 1 0 0 0 0 1 1 15 5
5 23 45 46 25 8 0 0 0 0 0 1 0 2 0 0 0 0 0 0 0 0
11 18 32 20 7 0 3 0 0 0 0 0 0 1 0 0 0 0 0 0 0 0

GFSNIL_con_sbcape_045.txt.gz
CAPE
0 0 0 0 0 2 168 286 369 553 421 389 494 481 373 344 214 142 174 192 168 105
0 0 0 0 3 122 235 245 339 372 474 555 553 446 296 338 267 163 58 20 0 0
0 0 0 0 214 344 230 338 358 441 470 481 548 505 423 317 158 52 12 0 0 0
0 0 63 293 312 316 295 302 350 351 350 523 554 493 372 206 139 134 12 0 0 0
182 270 372 423 350 249 275 329 404 520 589 582 456 268 198 137 109 36 8 0 0 0
697 588 481 450 417 433 479 612 622 548 634 512 267 150 117 93 30 3 0 0 0 0
977 836 734 760 683 585 557 557 554 537 448 427 265 145 49 9 0 0 0 0 0 0
1117 1004 1221 1035 802 677 654 584 470 282 197 150 88 16 0 0 0 0 0 0 0 0
1000 1009 1037 885 586 436 87 82 37 0 0 0 0 1 0 0 0 0 0 0 0 0
507 356 301 163 89 31 0 0 0 0 0 0 0 0 2 0 0 0 0 0 0 0
234 40 15 4 0 0 0 0 0 0 0 0 1 0 1 0 0 0 0 0 0 0
64 14 0 0 0 0 0 0 0 0 0 0 0 1 2 0 0 0 1 0 0 2
20 0 0 0 0 0 0 0 0 0 0 0 0 1 1 0 0 0 0 1 1 0
0 0 0 0 7 7 0 0 0 0 0 0 0 0 2 0 0 0 0 0 0 1

GFSNIL_con_sbcape_048.txt.gz
CAPE
74 196 122 67 0 0 0 0 50 269 274 223 204 134 128 184 270 174 181 185 182 176
0 0 0 0 0 0 0 1 122 328 316 286 380 361 291 315 302 301 166 214 170 75
0 0 0 0 0 0 1 153 242 329 451 469 508 395 276 271 258 140 41 16 0 0
0 0 0 0 0 11 101 275 400 523 573 604 534 391 355 381 182 73 75 5 5 0
0 0 0 0 15 160 347 410 533 566 616 623 552 376 376 238 137 181 26 7 0 0
0 1 28 151 241 391 412 484 607 689 846 737 561 511 280 223 120 49 19 5 0 0
159 230 349 435 538 558 694 751 776 873 741 587 350 240 189 126 49 6 2 0 0 0
572 579 729 716 734 788 870 873 752 619 629 449 318 184 123 0 0 0 0 0 0 0
929 1069 962 795 781 767 564 556 473 451 430 328 0 0 0 0 0 0 0 0 0 0
1208 1034 981 748 573 360 313 369 190 38 13 0 0 0 1 0 0 0 0 0 0 0
815 773 564 437 265 101 7 0 0 0 0 1 1 1 1 0 0 0 0 0 0 0
308 275 229 147 34 0 0 0 0 0 0 1 2 1 1 0 0 0 0 0 0 0
156 179 112 6 0 0 0 1 1 0 1 0 1 1 2 0 1 0 2 3 3 0
60 31 0 0 0 0 1 0 0 1 3 1 1 0 1 0 0 1 0 1 1 1